sat.trackr.live / text

‹ back to catalog

STAR ONE C4

NORAD 40733 · 2015-034B

PAYLOAD ACTIVE UNKNOWN

§ Identity

Operator
Country
BRAZ
Launch date
2015-07-15
Launch site
FRGUI
Launch vehicle
Mass (kg)
RCS (m²)
23.31

Purposes: comms

External: N2YO · Heavens-Above · Gunter

§ Orbital elements

Epoch: 2026-09-20T03:50:28.650048Z

Period
1,436.11 min
Inclination
0.0423°
Eccentricity
0.0000946
Mean motion
1.00271173 rev/d
Perigee alt
35,782.8 km
Apogee alt
35,790.8 km
Semi-major
42,164.9 km
B*
0.0000e+0
RAAN
357.5413°
Arg perigee
183.3494°
Mean anomaly
165.7991°
Rev number
4,096

§ Raw data

STAR ONE C41 40733U 15034B   26263.16005382 -.00000269  00000+0  00000+0 0  99902 40733   0.0423 357.5413 0000946 183.3494 165.7991  1.00271173 40966

JSON: /api/v1/satellites/40733 · /tle

For live sub-satellite position, see the globe view (requires WebGL).

§ Visibility from observer

Set your observer location to see the next 7 days of passes ≥ 10°. The values pass through the URL so the page stays shareable.

No JS? Fill the form by hand. The geolocation button needs JavaScript.